COSMOS 1275 DEB, 19853

Orbit data source: Space-Track

COSMOS 1275 DEB, 19853 is space debris in LEO originally from a launch on Thu, 04 Jun 1981 UTC launched from the Plesetsk Missile And Space Complex (PKMTR). Debris objects in space refer to the collection of defunct objects orbiting the Earth. Examples of debris include non-operational satellites, rocket bodies, and fragments generated from explosions, collisions, or faulty payload assembly.

Loading next visibility...
Identifier
19853, 1981-053MH
Orbit
LEO
Country
Flag of CISCIS
Related business
Manufacturer
Unknown
Mission
Spacecraft
Bus & Motor
Unknown
Mass
Unknown
Launch date (UTC)
1981-06-04 (44 years ago)
Launch vehicle
Unknown
Launch site
Plesetsk Missile And Space Complex (PKMTR)
Object type
Payload
Rocket body
Debris
Shape & HBR
Unknown shape, 0.1 m
Radar Cross Section
Small (<0.1 m²)

Expand to show TLE details & history
Last TLE update: 2 days ago

TLE from 2 days ago
0 COSMOS 1275 DEB
1 19853U 81053MH  25293.17276098  .00001693  00000-0  18718-2 0  9990
2 19853  82.9882  78.7092 0120679 174.8843   5.2354 13.68186184661646
Epoch: 2025-10-20T04:08Z
TLE epoch observation values (Epoch: 2025-10-20T04:08:46.548Z)
Latitude
-0.3631°
Longitude
167.68079°
Altitude
920.281 km
Speed
7.436 km/s
True Right ascension
17h 15m 00s
True Declination
0° 21' 40"
Sunlit
Object was in daylight at epoch
Visualization orbit readout
Latitude
Unknown
Longitude
Unknown
Altitude
Unknown
Speed
Unknown
Apparent Right ascension
Unknown
Apparent Declination
Unknown
Sunlit
N/A
Visualization observer readout
Local Sidereal Time
11:13:46
Azimuth
Unknown
Elevation
Unknown
Doppler factor
Unknown
Orbital elements
Apogee altitude
1,092.324 km
Perigee altitude
914.168 km
Semi-major axis
7,381.383 km
Eccentricity
0.01207
Inclination
82.9882°
RAAN
78.7092°
Arg. of periapsis
174.8843°
True anomaly
5.36351°
Mean anomaly
5.2354°
Eccentric anomaly
5.29926°
Mean motion
3.42245 °/min
Orbital period
105.19 mins
BSTAR
0.0018718
Loading maneuver chart data...
Computing Atmospheric mass density...

Documentation

Showing up to 5 results
|